Timestamp[UTC];2m Lufttemperatur [degC] (tas);Stations-Luftdruck [Pa] (ps);relative Luftfeuchtigkeit [%] (hurs);spezifische Luftfeuchtigkeit [kg/kg] (huss);Niederschlagsmenge [mm] (pr);Windgeschwindigkeit in 2m [m/s] (sfcWind);Windrichtung [deg];maximale Windgeschwindigkeit [m/s] (wsgsmax);u-Windkomponente [m/s] (uas);v-Windkomponente [m/s] (vas);Sonneneinstrahlung [W/m2];Blitzrate [n];Blitzentfernung [km];Bodenfeuchte in 5cm Tiefe [vol%];Bodenfeuchte in 15cm Tiefe [vol%];Bodenfeuchte in 30cm Tiefe [vol%];Bodenfeuchte in 60cm Tiefe [vol%];Bodentemperatur in 5cm Tiefe [degC];Bodentemperatur in 15cm Tiefe [degC];Bodentemperatur in 30cm Tiefe [degC];Bodentemperatur in 60cm Tiefe [degC];Matrixpotential in 30cm Tiefe [kPa];Bodenfeuchte aus CRNS [vol%] (mrso);Neutronen Anzahl [N/h]
2023-07-01 00:00:00;16,5;99177;64;0,0076;0,0;2,3;207;4,1;-1,05;-2,08;0;0;nan;14,6;23,0;19,3;26,7;17,1;17,8;18,0;17,2;-296,5;15,2;1585
2023-07-01 01:00:00;16,6;99113;64;0,0077;0,0;2,6;203;4,1;-1,02;-2,38;0;0;nan;14,6;23,0;19,3;26,7;17,0;17,7;17,9;17,2;-298,2;15,1;1587
2023-07-01 02:00:00;17,2;99060;63;0,0078;0,0;2,5;210;4,3;-1,24;-2,12;0;0;nan;14,6;23,0;19,3;26,7;16,9;17,6;17,9;17,2;-297,3;15,1;1587
2023-07-01 03:00:00;17,2;99037;63;0,0078;0,0;2,2;219;4,6;-1,34;-1,68;1;0;nan;14,6;23,0;19,3;26,7;16,9;17,5;17,9;17,2;-295,2;15,2;1584
2023-07-01 04:00:00;17,0;98990;66;0,008;0,0;2,0;215;3,4;-1,12;-1,58;17;0;nan;14,6;23,0;19,3;26,7;16,9;17,5;17,8;17,2;-294,4;15,2;1584
2023-07-01 05:00:00;16,8;98917;68;0,0083;0,0;2,2;209;4,0;-1,05;-1,92;44;0;nan;14,6;23,0;19,3;26,7;16,9;17,4;17,7;17,2;-295,3;15,2;1583
2023-07-01 06:00:00;16,8;98883;70;0,0084;0,0;2,5;215;4,4;-1,45;-2,05;61;0;nan;14,6;23,0;19,3;26,7;16,9;17,4;17,7;17,2;-294,6;15,2;1584
2023-07-01 07:00:00;16,1;98887;78;0,009;0,07;2,7;216;5,1;-1,57;-2,17;104;0;nan;14,6;22,9;19,3;26,7;16,9;17,4;17,7;17,2;-294,2;15,0;1589
2023-07-01 08:00:00;15,9;98877;85;0,0097;0,23;2,6;214;4,8;-1,47;-2,17;236;0;nan;14,6;22,9;19,3;26,7;17,1;17,4;17,6;17,2;-297,3;14,9;1592
2023-07-01 09:00:00;16,0;98857;88;0,0101;0,07;2,7;214;5,1;-1,5;-2,24;219;0;nan;14,6;22,9;19,3;26,7;17,3;17,4;17,6;17,2;-294,2;15,0;1590
2023-07-01 10:00:00;16,8;98833;87;0,0105;0,0;2,8;217;6,4;-1,68;-2,24;165;0;nan;14,6;22,9;19,3;26,7;17,5;17,5;17,6;17,1;-293,4;15,1;1588
2023-07-01 11:00:00;17,0;98807;88;0,0108;0,0;2,8;217;5,0;-1,68;-2,22;207;0;nan;14,6;22,9;19,3;26,7;17,6;17,5;17,6;17,1;-293,4;15,2;1584
2023-07-01 12:00:00;17,9;98767;85;0,011;0,03;2,7;217;4,9;-1,66;-2,16;177;0;nan;14,6;22,9;19,3;26,7;17,8;17,6;17,6;17,1;-293,8;15,3;1581
2023-07-01 13:00:00;18,1;98757;86;0,0112;0,1;2,6;217;5,5;-1,56;-2,05;133;0;nan;14,6;22,9;19,3;26,7;17,9;17,7;17,6;17,1;-292,8;15,5;1576
2023-07-01 14:00:00;19,1;98730;84;0,0117;0,15;2,4;236;5,5;-1,9;-1,29;122;0;nan;14,6;22,8;19,3;26,7;17,9;17,8;17,6;17,1;-291,7;15,6;1572
2023-07-01 15:00:00;18,5;98703;90;0,0122;0,25;2,2;233;4,3;-1,77;-1,34;198;1;27;14,6;22,8;19,3;26,7;18,1;17,8;17,6;17,1;-290,2;15,6;1572
2023-07-01 16:00:00;19,0;98707;89;0,0124;0,0;1,9;248;3,8;-1,67;-0,67;67;0;nan;14,6;22,8;19,3;26,7;18,2;17,9;17,6;17,1;-289,9;15,5;1573
2023-07-01 17:00:00;20,3;98737;77;0,0116;0,0;3,0;280;6,4;-2,98;0,55;101;0;nan;14,6;22,8;19,3;26,7;18,2;18,0;17,6;17,1;-289,0;15,4;1578
2023-07-01 18:00:00;19,7;98793;73;0,0106;0,0;3,1;278;6,7;-3,06;0,41;41;0;nan;14,6;22,8;19,3;26,7;18,1;18,0;17,7;17,1;-288,4;15,3;1581
2023-07-01 19:00:00;19,0;98853;74;0,0102;0,0;3,0;281;5,6;-2,94;0,58;7;0;nan;14,6;22,8;19,3;26,7;17,9;18,0;17,7;17,1;-289,0;15,1;1586
2023-07-01 20:00:00;18,2;98957;75;0,0099;0,0;3,2;288;7,0;-3,03;0,97;0;1;20;14,6;22,8;19,3;26,7;17,7;18,0;17,7;17,1;-288,3;15,2;1585
2023-07-01 21:00:00;15,8;99017;83;0,0095;0,12;1,9;266;4,3;-1,91;-0,14;0;0;nan;14,6;22,8;19,3;26,7;17,5;17,9;17,7;17,1;-288,0;15,2;1585
2023-07-01 22:00:00;15,6;99063;86;0,0096;0,39;2,7;273;7,3;-2,68;0,16;0;0;nan;14,6;22,8;19,3;26,7;17,3;17,9;17,7;17,1;-287,5;15,1;1586
2023-07-01 23:00:00;14,6;99070;92;0,0096;0,55;1,8;243;3,2;-1,57;-0,79;0;0;nan;14,6;22,8;19,3;26,7;17,2;17,8;17,7;17,1;-287,0;14,9;1593
2023-07-02 00:00:00;14,7;99047;93;0,0098;0,05;1,8;242;2,7;-1,54;-0,83;0;0;nan;14,6;22,8;19,3;26,7;17,2;17,7;17,7;17,0;-287,2;15,0;1591
2023-07-02 01:00:00;14,2;99040;91;0,0093;0,02;1,8;234;2,9;-1,48;-1,09;0;0;nan;14,6;22,7;19,3;26,7;17,1;17,6;17,7;17,1;-287,6;15,0;1589
2023-07-02 02:00:00;14,1;99057;88;0,0089;0,0;2,2;226;4,8;-1,58;-1,53;0;0;nan;14,6;22,7;19,3;26,7;16,9;17,5;17,7;17,1;-287,1;15,1;1586
2023-07-02 03:00:00;14,1;99053;86;0,0087;0,0;1,9;233;3,6;-1,53;-1,15;3;0;nan;14,6;22,7;19,3;26,7;16,8;17,4;17,6;17,1;-287,6;15,0;1591
2023-07-02 04:00:00;14,2;99107;86;0,0088;0,0;1,5;238;3,3;-1,25;-0,77;24;0;nan;14,6;22,7;19,3;26,7;16,7;17,4;17,6;17,0;-287,2;15,0;1589
2023-07-02 05:00:00;14,5;99140;87;0,0091;0,0;1,5;235;2,8;-1,2;-0,83;44;3;18;14,6;22,7;19,3;26,7;16,7;17,3;17,6;17,0;-287,2;15,1;1587
2023-07-02 06:00:00;15,5;99203;87;0,0097;0,0;1,7;241;3,7;-1,42;-0,79;161;0;nan;14,6;22,7;19,3;26,7;16,8;17,2;17,5;17,0;-286,3;15,1;1589
2023-07-02 07:00:00;16,7;99230;83;0,0099;0,0;2,5;272;5,0;-2,47;0,08;268;1;20;14,6;22,7;19,3;26,7;17,0;17,2;17,5;17,0;-286,0;15,0;1589
2023-07-02 08:00:00;17,9;99255;73;0,0094;0,0;2,2;269;4,3;-2,22;-0,03;406;0;nan;14,6;22,6;19,3;26,7;17,2;17,2;17,5;17,0;-285,6;15,0;1591
2023-07-02 09:00:00;18,2;99280;69;0,0091;0,0;2,6;279;5,6;-2,57;0,39;286;0;nan;14,6;22,6;19,3;26,7;17,4;17,3;17,4;17,0;-287,0;15,0;1591
2023-07-02 10:00:00;18,3;99297;71;0,0094;0,0;2,4;279;5,0;-2,37;0,39;267;0;nan;14,6;22,6;19,3;26,7;17,4;17,4;17,4;17,0;-287,8;14,9;1593
2023-07-02 11:00:00;19,3;99293;68;0,0095;0,0;2,6;262;5,8;-2,52;-0,33;388;0;nan;14,6;22,5;19,3;26,7;17,7;17,5;17,4;17,0;-287,8;14,8;1597
2023-07-02 12:00:00;19,7;99300;62;0,009;0,0;3,5;279;7,1;-3,42;0,53;385;0;nan;14,6;22,5;19,3;26,7;17,9;17,6;17,4;17,0;-287,9;14,8;1597
2023-07-02 13:00:00;19,9;99320;62;0,0091;0,0;3,4;286;7,3;-3,24;0,96;403;0;nan;14,6;22,5;19,3;26,6;18,0;17,7;17,4;17,0;-286,7;14,6;1604
2023-07-02 14:00:00;20,4;99323;59;0,0088;0,0;2,9;272;6,2;-2,83;0,12;312;0;nan;14,6;22,4;19,3;26,6;18,1;17,8;17,5;17,0;-286,6;14,6;1602
2023-07-02 15:00:00;21,1;99300;54;0,0085;0,0;3,4;275;7,1;-3,34;0,29;314;1;20;14,6;22,4;19,3;26,6;18,2;17,8;17,5;17,0;-287,6;14,7;1600
2023-07-02 16:00:00;21,5;99283;53;0,0085;0,0;2,7;271;5,1;-2,67;0,05;229;0;nan;14,5;22,4;19,3;26,6;18,2;17,9;17,5;17,0;-288,5;14,6;1604
2023-07-02 17:00:00;21,3;99273;53;0,0085;0,0;2,7;268;5,8;-2,65;-0,1;120;0;nan;14,5;22,3;19,3;26,6;18,3;18,0;17,6;17,0;-288,8;14,5;1607
2023-07-02 18:00:00;20,5;99257;55;0,0084;0,0;2,5;271;5,1;-2,51;0,03;59;0;nan;14,5;22,3;19,3;26,6;18,1;18,0;17,6;17,0;-288,2;14,4;1608
2023-07-02 19:00:00;19,8;99273;57;0,0083;0,0;2,1;268;4,3;-2,08;-0,08;12;0;nan;14,5;22,3;19,3;26,6;18,0;18,0;17,6;17,0;-288,2;14,5;1605
2023-07-02 20:00:00;19,1;99290;59;0,0082;0,0;1,7;259;3,4;-1,63;-0,31;0;0;nan;14,5;22,3;19,3;26,6;17,8;18,0;17,6;17,0;-288,8;14,4;1608
2023-07-02 21:00:00;18,2;99333;62;0,0081;0,0;1,5;255;3,7;-1,4;-0,39;0;0;nan;14,5;22,3;19,3;26,6;17,6;17,9;17,7;17,0;-288,3;14,4;1610
2023-07-02 22:00:00;17,4;99387;62;0,0077;0,0;3,5;281;7,8;-3,38;0,64;0;0;nan;14,5;22,3;19,3;26,6;17,3;17,8;17,7;17,0;-288,3;14,4;1609
2023-07-02 23:00:00;15,8;99380;62;0,007;0,0;2,5;275;5,5;-2,51;0,23;0;1;27;14,5;22,3;19,3;26,6;16,9;17,7;17,7;17,0;-288,0;14,5;1606
2023-07-03 00:00:00;15,4;99357;64;0,007;0,0;1,6;258;3,9;-1,57;-0,32;0;0;nan;14,5;22,3;19,3;26,6;16,7;17,6;17,6;17,0;-288,0;14,5;1607
2023-07-03 01:00:00;14,4;99363;68;0,007;0,0;1,3;251;2,8;-1,22;-0,42;0;0;nan;14,5;22,2;19,3;26,6;16,6;17,5;17,6;17,0;-289,1;14,4;1610
2023-07-03 02:00:00;13,2;99357;73;0,0069;0,0;1,4;233;3,4;-1,09;-0,81;0;0;nan;14,4;22,2;19,3;26,6;16,3;17,3;17,6;17,0;-289,2;14,2;1616
2023-07-03 03:00:00;12,6;99340;74;0,0068;0,0;1,6;227;2,8;-1,17;-1,1;3;0;nan;14,4;22,2;19,3;26,6;16,0;17,1;17,5;17,0;-288,6;14,2;1615
2023-07-03 04:00:00;12,7;99323;76;0,0071;0,0;1,6;225;3,1;-1,15;-1,17;44;1;34;14,4;22,2;19,3;26,6;15,8;17,0;17,5;17,0;-288,7;14,1;1619
2023-07-03 05:00:00;13,5;99340;78;0,0076;0,0;1,7;232;3,6;-1,3;-1,03;84;0;nan;14,4;22,2;19,3;26,6;15,9;16,8;17,4;17,0;-288,2;14,1;1621
2023-07-03 06:00:00;14,6;99363;77;0,008;0,0;1,8;230;4,3;-1,39;-1,18;111;0;nan;14,4;22,2;19,3;26,6;16,0;16,8;17,3;17,0;-289,6;14,1;1619
2023-07-03 07:00:00;15,4;99380;76;0,0084;0,0;2,2;226;5,7;-1,59;-1,52;206;2;15;14,4;22,1;19,3;26,6;16,2;16,8;17,3;17,0;-289,6;14,0;1622
2023-07-03 08:00:00;16,2;99397;76;0,0087;0,0;2,3;230;5,2;-1,74;-1,44;225;0;nan;14,4;22,1;19,3;26,6;16,5;16,8;17,2;17,0;-290,4;14,0;1623
2023-07-03 09:00:00;17,9;99397;69;0,0088;0,0;2,5;248;5,4;-2,23;-0,9;460;0;nan;14,4;22,1;19,3;26,6;16,9;16,9;17,2;17,0;-290,0;14,0;1624
2023-07-03 10:00:00;19,0;99400;55;0,0076;0,0;3,1;265;6,0;-3,02;-0,25;443;0;nan;14,4;22,0;19,3;26,6;17,3;17,0;17,2;16,9;-290,2;14,0;1622
2023-07-03 11:00:00;19,5;99387;53;0,0075;0,0;3,3;268;7,0;-3,31;-0,12;389;0;nan;14,4;22,0;19,3;26,5;17,6;17,2;17,2;16,9;-291,6;14,1;1619
2023-07-03 12:00:00;19,7;99400;53;0,0076;0,0;3,0;267;6,7;-2,94;-0,13;365;0;nan;14,4;21,9;19,3;26,5;17,6;17,3;17,2;16,9;-291,1;14,0;1623
2023-07-03 13:00:00;20,3;99387;52;0,0078;0,0;3,6;273;7,7;-3,62;0,21;430;2;20;14,4;21,9;19,3;26,5;17,8;17,4;17,2;16,9;-293,7;14,1;1621
2023-07-03 14:00:00;21,1;99353;53;0,0083;0,0;3,1;267;6,7;-3,13;-0,14;410;1;27;14,4;21,9;19,3;26,5;17,9;17,5;17,2;16,9;-297,2;13,9;1626
2023-07-03 15:00:00;20,9;99320;54;0,0083;0,0;3,1;270;6,7;-3,05;-0,02;217;0;nan;14,4;21,8;19,2;26,5;18,1;17,6;17,3;16,9;-298,2;13,9;1627
2023-07-03 16:00:00;21,5;99277;53;0,0085;0,0;2,8;268;6,0;-2,81;-0,1;192;0;nan;14,3;21,8;19,2;26,5;18,1;17,7;17,3;16,9;-303,2;13,9;1627
2023-07-03 17:00:00;21,6;99257;53;0,0086;0,0;3,0;270;6,2;-2,95;-0,02;100;1;17;14,3;21,8;19,2;26,5;18,0;17,8;17,4;16,9;-303,4;14,0;1625
2023-07-03 18:00:00;21,3;99240;54;0,0085;0,0;3,1;274;5,9;-3,13;0,21;44;0;nan;14,3;21,8;19,2;26,5;18,0;17,8;17,4;16,9;-305,1;13,9;1626
2023-07-03 19:00:00;19,7;99267;56;0,0081;0,0;2,2;264;4,2;-2,16;-0,22;11;0;nan;14,3;21,8;19,2;26,5;17,8;17,8;17,4;16,9;-305,9;13,9;1625
2023-07-03 20:00:00;17,7;99323;61;0,0078;0,0;1,3;248;2,1;-1,16;-0,48;0;1;20;14,3;21,8;19,2;26,5;17,5;17,8;17,5;16,9;-306,2;14,0;1622
2023-07-03 21:00:00;16,5;99367;66;0,0078;0,0;1,2;248;2,1;-1,15;-0,46;0;0;nan;14,2;21,7;19,3;26,5;17,1;17,6;17,5;16,9;-308,5;14,1;1620
2023-07-03 22:00:00;15,8;99410;70;0,0078;0,0;1,4;238;2,2;-1,15;-0,73;0;0;nan;14,2;21,7;19,3;26,5;16,8;17,5;17,5;16,9;-306,7;14,0;1622
2023-07-03 23:00:00;14,9;99437;72;0,0077;0,0;1,3;247;1,9;-1,13;-0,47;0;0;nan;14,2;21,7;19,3;26,5;16,5;17,3;17,4;16,9;-305,4;14,0;1623
2023-07-04 00:00:00;14,2;99470;77;0,0078;0,0;1,4;240;1,9;-1,18;-0,69;0;0;nan;14,2;21,7;19,3;26,5;16,1;17,2;17,4;16,9;-306,4;14,0;1625
2023-07-04 01:00:00;13,9;99473;76;0,0076;0,0;1,3;242;2,2;-1,18;-0,61;0;0;nan;14,2;21,7;19,3;26,5;15,9;17,0;17,4;16,9;-305,9;14,0;1623
2023-07-04 02:00:00;13,5;99473;78;0,0075;0,0;1,5;234;2,6;-1,18;-0,86;0;0;nan;14,2;21,7;19,3;26,5;15,7;16,8;17,3;16,9;-306,4;14,1;1621
2023-07-04 03:00:00;13,3;99483;79;0,0075;0,0;1,7;224;3,3;-1,16;-1,21;4;0;nan;14,2;21,7;19,3;26,5;15,5;16,7;17,3;16,9;-307,6;14,0;1623
2023-07-04 04:00:00;13,7;99487;78;0,0077;0,0;1,9;221;3,9;-1,25;-1,46;55;1;24;14,2;21,6;19,3;26,5;15,5;16,5;17,2;16,9;-304,0;14,0;1622
2023-07-04 05:00:00;14,8;99497;79;0,0083;0,0;1,9;225;4,2;-1,37;-1,38;163;0;nan;14,2;21,6;19,2;26,5;15,6;16,4;17,1;16,9;-308,0;14,0;1624
2023-07-04 06:00:00;16,1;99513;77;0,0088;0,0;2,2;231;4,7;-1,7;-1,38;306;1;27;14,2;21,6;19,2;26,5;15,9;16,4;17,1;16,9;-308,4;13,9;1628
2023-07-04 07:00:00;17,7;99547;69;0,0087;0,0;2,4;257;5,2;-2,31;-0,55;436;1;31;14,1;21,6;19,2;26,5;16,3;16,5;17,0;16,8;-309,6;13,9;1628
2023-07-04 08:00:00;18,7;99533;64;0,0086;0,0;2,8;257;6,6;-2,62;-0,59;551;0;nan;14,1;21,5;19,2;26,4;16,7;16,6;17,0;16,8;-313,2;13,8;1630
2023-07-04 09:00:00;20,0;99550;58;0,0085;0,0;2,7;260;5,7;-2,65;-0,47;667;0;nan;14,1;21,5;19,2;26,4;17,4;16,8;17,0;16,8;-315,3;13,7;1634
2023-07-04 10:00:00;20,8;99543;55;0,0085;0,0;2,8;276;5,6;-2,77;0,31;493;1;24;14,1;21,4;19,2;26,4;18,0;17,0;17,0;16,8;-315,9;13,6;1636
2023-07-04 11:00:00;21,7;99520;52;0,0085;0,0;3,7;281;6,9;-3,59;0,71;571;0;nan;14,1;21,4;19,2;26,4;18,2;17,2;17,0;16,8;-316,6;13,6;1638
2023-07-04 12:00:00;21,6;99510;50;0,0081;0,0;2,8;269;5,9;-2,78;-0,03;279;0;nan;14,1;21,3;19,2;26,3;18,4;17,5;17,0;16,8;-316,2;13,7;1634
2023-07-04 13:00:00;22,1;99487;49;0,0081;0,0;3,0;275;6,0;-2,94;0,28;356;2;16;14,1;21,3;19,2;26,3;18,4;17,6;17,1;16,8;-317,3;13,7;1633
2023-07-04 14:00:00;22,7;99457;47;0,0082;0,0;2,6;274;4,9;-2,57;0,17;299;1;24;14,1;21,3;19,2;26,3;18,5;17,7;17,1;16,8;-318,5;13,7;1633
2023-07-04 15:00:00;22,7;99420;47;0,0081;0,0;2,7;277;4,4;-2,64;0,35;221;0;nan;14,1;21,3;19,2;26,3;18,5;17,8;17,2;16,8;-318,4;13,7;1633
2023-07-04 16:00:00;22,9;99360;47;0,0082;0,0;2,1;274;3,3;-2,11;0,14;204;0;nan;14,0;21,2;19,2;26,3;18,5;17,9;17,3;16,8;-320,7;13,8;1630
2023-07-04 17:00:00;23,3;99313;50;0,009;0,0;1,8;266;2,6;-1,78;-0,11;134;0;nan;14,0;21,2;19,2;26,3;18,5;17,9;17,3;16,8;-321,3;13,9;1625
2023-07-04 18:00:00;21,2;99257;60;0,0095;0,0;1,5;251;2,0;-1,43;-0,5;44;0;nan;14,0;21,2;19,2;26,3;18,4;18,0;17,4;16,8;-321,2;14,1;1618
2023-07-04 19:00:00;20,0;99217;61;0,009;0,0;1,4;244;1,9;-1,28;-0,62;6;0;nan;14,0;21,2;19,2;26,3;18,3;18,0;17,4;16,8;-322,5;14,1;1619
2023-07-04 20:00:00;19,5;99233;64;0,0091;0,0;2,0;237;3,7;-1,62;-1,06;0;0;nan;14,0;21,2;19,2;26,3;18,1;18,0;17,4;16,8;-320,4;14,1;1619
2023-07-04 21:00:00;17,5;99190;79;0,01;0,03;1,7;233;3,1;-1,32;-0,99;0;0;nan;14,0;21,2;19,2;26,3;17,9;17,9;17,5;16,8;-322,1;14,1;1618
2023-07-04 22:00:00;17,7;99130;79;0,0101;0,0;2,6;213;4,4;-1,41;-2,17;0;0;nan;14,0;21,2;19,2;26,3;17,7;17,8;17,5;16,8;-322,8;14,3;1614
2023-07-04 23:00:00;17,9;99047;80;0,0103;0,09;3,7;196;6,8;-1,01;-3,57;0;0;nan;14,0;21,2;19,2;26,3;17,6;17,8;17,5;16,8;-323,0;14,4;1611
2023-07-05 00:00:00;17,6;98947;81;0,0103;0,0;3,9;187;8,3;-0,51;-3,86;0;1;24;14,0;21,2;19,2;26,3;17,5;17,7;17,5;16,8;-320,7;14,4;1609
2023-07-05 01:00:00;17,2;98860;84;0,0103;0,0;4,0;191;7,5;-0,75;-3,96;0;0;nan;14,0;21,2;19,2;26,3;17,4;17,6;17,5;16,8;-321,2;14,5;1607
2023-07-05 02:00:00;16,6;98800;89;0,0107;5,18;3,6;203;6,8;-1,36;-3,22;0;0;nan;14,2;21,2;19,2;26,3;17,2;17,6;17,5;16,8;-320,0;14,4;1608
2023-07-05 03:00:00;15,2;98847;98;0,0107;nan;2,5;244;5,0;-2,26;-1,08;0;0;nan;15,0;24,8;19,2;26,3;17,1;17,4;17,5;16,8;-316,5;14,5;1606
2023-07-05 04:00:00;14,0;98940;93;0,0094;0,0;2,2;236;5,3;-1,78;-1,22;11;0;nan;14,7;24,7;19,3;26,3;17,0;17,4;17,4;16,8;-317,6;14,6;1603
2023-07-05 05:00:00;14,2;99013;90;0,0092;0,0;2,0;237;4,0;-1,68;-1,1;149;0;nan;14,6;24,6;19,3;26,3;16,8;17,3;17,4;16,8;-315,8;14,7;1598
2023-07-05 06:00:00;14,5;99080;78;0,0081;0,0;3,0;229;6,3;-2,25;-1,97;211;0;nan;14,6;24,5;19,3;26,3;16,8;17,3;17,4;16,8;-314,7;14,9;1595
2023-07-05 07:00:00;15,1;99148;74;0,008;0,0;2,9;242;6,0;-2,54;-1,34;237;0;nan;14,6;24,5;19,3;26,3;16,9;17,2;17,4;16,8;-314,2;15,0;1592
2023-07-05 08:00:00;15,4;99233;71;0,0078;0,0;2,8;243;7,4;-2,46;-1,28;256;0;nan;14,6;24,4;19,3;26,3;17,0;17,2;17,3;16,8;-313,2;15,1;1588
2023-07-05 09:00:00;16,7;99293;67;0,0079;0,0;2,9;256;7,3;-2,81;-0,7;390;0;nan;14,6;24,4;19,3;26,3;17,1;17,2;17,3;16,8;-311,3;15,2;1585
2023-07-05 10:00:00;17,9;99340;60;0,0077;0,0;3,6;252;8,7;-3,34;-1,09;612;1;17;14,6;24,3;19,3;26,3;17,4;17,3;17,3;16,8;-308,8;15,2;1583
2023-07-05 11:00:00;18,7;99373;55;0,0074;0,0;3,5;259;7,6;-3,41;-0,64;501;0;nan;14,6;24,2;19,3;26,3;17,7;17,4;17,3;16,8;-307,9;15,4;1579
2023-07-05 12:00:00;18,7;99407;56;0,0076;0,0;3,1;251;8,4;-2,93;-0,98;287;0;nan;14,6;24,1;19,3;26,2;17,9;17,5;17,3;16,8;-300,6;15,4;1579
2023-07-05 13:00:00;18,7;99450;60;0,0081;0,0;3,1;262;8,5;-3,1;-0,44;345;0;nan;14,6;24,1;19,3;26,2;17,9;17,6;17,3;16,8;-298,3;15,3;1580
2023-07-05 14:00:00;18,2;99500;66;0,0086;0,0;3,4;251;8,4;-3,18;-1,08;324;0;nan;14,6;24,0;19,3;26,2;17,9;17,7;17,3;16,8;-293,8;15,4;1579
2023-07-05 15:00:00;18,0;99547;68;0,0088;0,0;2,9;255;7,2;-2,75;-0,73;192;0;nan;14,6;24,0;19,3;26,2;17,9;17,7;17,3;16,8;-291,2;15,3;1580
2023-07-05 16:00:00;17,5;99580;71;0,0089;0,0;2,7;242;6,8;-2,35;-1,27;140;0;nan;14,6;24,0;19,3;26,2;17,8;17,8;17,4;16,8;-289,2;15,3;1581
2023-07-05 17:00:00;17,5;99607;70;0,0087;0,0;2,8;261;6,7;-2,72;-0,44;62;0;nan;14,6;23,9;19,3;26,2;17,7;17,8;17,4;16,8;-287,6;15,1;1587
2023-07-05 18:00:00;18,0;99623;66;0,0086;0,0;2,2;256;4,4;-2,13;-0,54;55;0;nan;14,6;23,9;19,3;26,2;17,6;17,7;17,4;16,8;-287,0;15,0;1589
2023-07-05 19:00:00;16,9;99663;70;0,0084;0,0;1,8;229;3,7;-1,33;-1,16;7;0;nan;14,6;23,9;19,4;26,2;17,5;17,7;17,4;16,8;-285,7;15,1;1588
2023-07-05 20:00:00;16,4;99715;72;0,0083;0,0;1,4;237;2,6;-1,18;-0,75;0;0;nan;14,5;23,9;19,4;26,2;17,3;17,7;17,4;16,8;-285,0;15,0;1589
2023-07-05 21:00:00;15,5;99773;75;0,0083;0,0;1,7;265;3,5;-1,53;-0,12;0;0;nan;14,5;23,8;19,4;26,2;17,0;17,6;17,4;16,8;-282,6;15,0;1592
2023-07-05 22:00:00;14,5;99813;79;0,0082;0,0;1,4;234;1,9;-1,1;-0,81;0;0;nan;14,5;23,8;19,4;26,2;16,8;17,5;17,4;16,8;-281,2;14,8;1596
2023-07-05 23:00:00;13,8;99840;79;0,0078;0,0;1,5;236;2,1;-1,21;-0,82;0;0;nan;14,5;23,8;19,4;26,2;16,5;17,3;17,4;16,8;-278,6;14,9;1594
2023-07-06 00:00:00;13,2;99847;81;0,0077;0,0;1,5;243;2,1;-1,26;-0,66;0;0;nan;14,5;23,8;19,4;26,2;16,1;17,2;17,4;16,8;-275,7;14,9;1592
2023-07-06 01:00:00;13,3;99843;81;0,0077;0,0;1,9;227;3,4;-1,4;-1,32;0;0;nan;14,5;23,8;19,4;26,2;15,9;17,0;17,3;16,8;-274,4;14,9;1593
2023-07-06 02:00:00;12,7;99860;81;0,0074;0,0;1,6;232;2,7;-1,29;-1,01;0;1;34;14,5;23,7;19,4;26,3;15,7;16,8;17,3;16,8;-274,3;14,8;1596
2023-07-06 03:00:00;12,4;99870;81;0,0073;0,0;1,9;231;3,5;-1,47;-1,19;3;0;nan;14,5;23,7;19,4;26,3;15,6;16,7;17,2;16,8;-275,4;14,9;1595
2023-07-06 04:00:00;13,1;99863;80;0,0076;0,0;1,8;235;3,2;-1,49;-1,05;69;0;nan;14,5;23,7;19,4;26,3;15,4;16,6;17,2;16,8;-271,7;14,8;1595
2023-07-06 05:00:00;14,2;99883;80;0,0081;0,0;1,8;237;3,4;-1,47;-0,94;178;0;nan;14,5;23,7;19,4;26,3;15,6;16,5;17,1;16,8;-269,8;14,8;1596
2023-07-06 06:00:00;15,6;99907;76;0,0084;0,0;1,7;249;3,3;-1,57;-0,6;311;1;27;14,5;23,6;19,4;26,3;15,8;16,4;17,0;16,8;-268,1;14,7;1599
2023-07-06 07:00:00;17,1;99943;71;0,0086;0,0;1,8;249;3,6;-1,65;-0,62;438;2;10;14,5;23,6;19,4;26,2;16,1;16,4;17,0;16,8;-268,1;14,8;1597
2023-07-06 08:00:00;18,2;99960;65;0,0085;0,0;1,9;273;3,6;-1,9;0,08;560;0;nan;14,5;23,5;19,4;26,2;16,7;16,5;16,9;16,8;-267,3;14,8;1595
2023-07-06 09:00:00;19,4;99953;58;0,0082;0,0;2,2;281;4,9;-2,18;0,43;672;0;nan;14,5;23,4;19,4;26,2;17,2;16,7;16,9;16,8;-266,1;14,8;1596
2023-07-06 10:00:00;20,6;99953;53;0,008;0,0;2,2;259;4,7;-2,18;-0,44;660;1;20;14,5;23,3;19,4;26,2;17,8;16,9;16,9;16,8;-266,2;14,7;1598
2023-07-06 11:00:00;21,2;99943;50;0,0079;0,0;2,4;250;5,1;-2,29;-0,83;635;0;nan;14,5;23,3;19,4;26,2;18,2;17,2;16,9;16,7;-266,2;14,7;1601
2023-07-06 12:00:00;22,0;99940;48;0,0079;0,0;2,6;271;5,4;-2,62;0,03;567;0;nan;14,5;23,2;19,4;26,2;18,6;17,4;17,0;16,7;-265,8;14,6;1602
2023-07-06 13:00:00;22,3;99933;46;0,0077;0,0;2,7;280;5,6;-2,63;0,49;550;1;12;14,5;23,1;19,4;26,1;18,8;17,7;17,0;16,7;-265,1;14,5;1605
2023-07-06 14:00:00;22,6;99910;45;0,0078;0,0;3,2;287;7,1;-3,01;0,91;525;0;nan;14,5;23,1;19,4;26,1;18,8;17,8;17,1;16,7;-266,0;14,6;1604
2023-07-06 15:00:00;22,7;99907;47;0,008;0,0;2,1;308;4,4;-1,64;1,3;449;1;31;14,5;23,0;19,4;26,1;18,8;17,9;17,2;16,7;-265,2;14,6;1602
2023-07-06 16:00:00;23,0;99890;46;0,0081;0,0;2,5;289;4,9;-2,38;0,82;248;0;nan;14,4;23,0;19,4;26,1;18,8;18,0;17,2;16,7;-265,5;14,6;1605
2023-07-06 17:00:00;22,6;99890;45;0,0078;0,0;2,1;283;3,1;-1,99;0,45;65;0;nan;14,4;22,9;19,4;26,1;18,7;18,1;17,3;16,7;-265,5;14,6;1603
2023-07-06 18:00:00;21,9;99937;50;0,0081;0,0;1,5;272;3,1;-1,5;0,06;30;0;nan;14,4;22,9;19,4;26,1;18,4;18,1;17,4;16,7;-264,4;14,5;1607
2023-07-06 19:00:00;19,5;99960;59;0,0083;0,0;1,4;264;1,6;-1,35;-0,14;8;1;17;14,4;22,9;19,4;26,1;18,1;18,1;17,4;16,7;-265,0;14,4;1611
2023-07-06 20:00:00;16,8;100033;67;0,008;0,0;1,4;238;1,8;-1,18;-0,74;0;0;nan;14,4;22,9;19,4;26,1;17,6;18,0;17,5;16,7;-265,2;14,3;1615
2023-07-06 21:00:00;15,4;100080;71;0,0078;0,0;1,2;245;1,8;-1,1;-0,52;0;0;nan;14,4;22,9;19,4;26,1;17,1;17,8;17,5;16,7;-264,6;14,3;1614
2023-07-06 22:00:00;14,8;100100;73;0,0077;0,0;1,2;255;1,5;-1,16;-0,31;0;0;nan;14,3;22,9;19,4;26,1;16,6;17,6;17,5;16,7;-264,1;14,2;1616
2023-07-06 23:00:00;14,4;100120;73;0,0075;0,0;1,2;254;1,6;-1,2;-0,34;0;0;nan;14,3;22,9;19,4;26,1;16,3;17,4;17,5;16,7;-264,0;14,0;1622
2023-07-07 00:00:00;13,7;100130;76;0,0074;0,0;1,1;260;1,6;-1,1;-0,2;0;0;nan;14,3;22,8;19,4;26,1;15,9;17,2;17,4;16,7;-264,2;13,9;1625
2023-07-07 01:00:00;12,3;100120;80;0,0071;0,0;1,1;258;1,4;-1,06;-0,23;0;0;nan;14,3;22,8;19,4;26,1;15,6;17,0;17,4;16,7;-263,2;13,9;1626
2023-07-07 02:00:00;11,5;100113;82;0,0069;0,0;1,1;259;1,5;-1,07;-0,2;0;0;nan;14,3;22,8;19,4;26,1;15,3;16,8;17,3;16,7;-262,6;14,0;1624
2023-07-07 03:00:00;11,0;100122;86;0,007;0,0;1,0;255;1,5;-0,97;-0,26;7;0;nan;14,3;22,8;19,4;26,1;15,0;16,6;17,2;16,7;-263,4;13,9;1627
2023-07-07 04:00:00;11,9;100127;86;0,0075;0,0;0,9;238;1,2;-0,77;-0,48;78;1;24;14,3;22,8;19,4;26,1;14,8;16,4;17,2;16,7;-262,6;13,8;1629
2023-07-07 05:00:00;14,7;100127;84;0,0088;0,0;0,8;258;1,1;-0,75;-0,16;181;0;nan;14,3;22,8;19,4;26,1;15,0;16,2;17,1;16,7;-262,8;13,8;1631
2023-07-07 06:00:00;17,4;100127;78;0,0097;0,0;1,0;284;1,7;-0,96;0,24;313;1;27;14,3;22,7;19,4;26,1;15,4;16,2;17,0;16,7;-263,8;13,7;1632
2023-07-07 07:00:00;21,0;100143;65;0,0102;0,0;1,4;270;2,2;-1,44;0,0;446;1;17;14,3;22,7;19,4;26,1;16,0;16,2;16,9;16,8;-263,4;13,6;1638
2023-07-07 08:00:00;23,6;100153;57;0,0104;0,0;2,2;257;3,6;-2,08;-0,47;561;2;15;14,3;22,6;19,4;26,1;16,7;16,4;16,9;16,7;-263,2;13,5;1639
2023-07-07 09:00:00;24,3;100143;48;0,0091;0,0;2,7;213;5,2;-1,44;-2,24;688;0;nan;14,3;22,5;19,4;26,1;17,6;16,6;16,8;16,7;-263,8;13,4;1643
2023-07-07 10:00:00;25,1;100120;42;0,0084;0,0;2,3;212;5,7;-1,17;-1,86;756;1;27;14,3;22,4;19,4;26,1;18,5;17,0;16,8;16,7;-264,0;13,4;1646
2023-07-07 11:00:00;25,9;100073;41;0,0085;0,0;1,9;237;4,6;-1,51;-0,98;753;0;nan;14,3;22,3;19,3;26,0;19,1;17,4;16,9;16,7;-265,4;13,3;1647
2023-07-07 12:00:00;26,3;100037;40;0,0086;0,0;1,6;307;4,0;-0,89;0,66;704;0;nan;14,3;22,3;19,3;26,0;19,6;17,7;16,9;16,7;-266,0;13,2;1651
2023-07-07 13:00:00;27,8;100013;36;0,0083;0,0;2,6;263;4,8;-2,41;-0,31;713;0;nan;14,2;22,2;19,3;26,0;20,0;18,1;17,0;16,7;-266,0;13,3;1650
2023-07-07 14:00:00;28,2;99970;34;0,008;0,0;2,0;249;3,8;-1,75;-0,66;598;1;27;14,2;22,2;19,3;26,0;20,1;18,4;17,1;16,7;-267,3;13,1;1655
2023-07-07 15:00:00;28,2;99950;34;0,0082;0,0;1,4;288;2,9;-1,31;0,43;445;1;24;14,2;22,1;19,3;25,9;20,0;18,6;17,3;16,7;-269,6;13,0;1658
2023-07-07 16:00:00;28,2;99900;35;0,0083;0,0;1,4;304;3,6;-1,08;0,73;256;0;nan;14,2;22,1;19,3;25,9;19,8;18,7;17,4;16,7;-272,0;13,0;1660
2023-07-07 17:00:00;28,0;99867;34;0,0081;0,0;1,2;304;2,6;-1,0;0,68;107;0;nan;14,1;22,0;19,3;25,9;19,5;18,7;17,5;16,7;-277,6;12,9;1663
2023-07-07 18:00:00;26,9;99850;37;0,0083;0,0;1,7;263;2,4;-1,67;-0,21;41;0;nan;14,1;22,0;19,3;25,9;19,4;18,7;17,6;16,7;-279,8;12,9;1664
2023-07-07 19:00:00;24,4;99843;42;0,0081;0,0;2,1;230;3,0;-1,59;-1,33;7;0;nan;14,1;22,0;19,3;25,9;19,1;18,7;17,7;16,7;-280,8;12,9;1661
2023-07-07 20:00:00;22,7;99867;44;0,0076;0,0;1,8;223;2,9;-1,25;-1,35;0;0;nan;14,1;22,0;19,3;25,9;18,7;18,6;17,7;16,7;-281,0;13,0;1659
2023-07-07 21:00:00;21,7;99863;46;0,0075;0,0;1,6;228;2,4;-1,15;-1,05;0;0;nan;14,1;22,0;19,4;25,9;18,3;18,5;17,8;16,7;-284,3;13,1;1656
2023-07-07 22:00:00;21,7;99873;48;0,0078;0,0;1,4;254;2,6;-1,26;-0,35;0;0;nan;14,1;22,0;19,4;25,9;18,1;18,3;17,8;16,7;-283,2;13,1;1656
2023-07-07 23:00:00;20,7;99870;50;0,0077;0,0;1,5;243;2,8;-1,27;-0,66;0;0;nan;14,1;22,0;19,4;25,9;17,9;18,2;17,8;16,7;-282,4;13,2;1652
2023-07-08 00:00:00;20,5;99837;51;0,0076;0,0;1,4;251;2,7;-1,31;-0,45;0;0;nan;14,1;21,9;19,4;25,9;17,7;18,1;17,8;16,7;-283,0;13,2;1651
2023-07-08 01:00:00;20,4;99813;52;0,0077;0,0;1,1;255;2,4;-1,01;-0,28;0;1;27;14,0;21,9;19,4;25,9;17,5;18,0;17,8;16,8;-281,5;13,1;1657
2023-07-08 02:00:00;18,0;99767;60;0,0078;0,0;1,2;279;2,0;-1,17;0,19;0;0;nan;14,0;21,9;19,4;25,9;17,4;17,9;17,7;16,8;-282,8;13,0;1658
2023-07-08 03:00:00;17,4;99780;64;0,008;0,0;1,7;269;2,3;-1,68;-0,04;4;0;nan;14,0;21,9;19,4;25,9;17,1;17,8;17,7;16,8;-283,2;13,1;1657